Location: Aytr�
(46.1357°N, 1.1145°W)
Time: 13:11:55
(UTC+00:00)

DMSP B5D2-2 - Pass Details

Date: 03 March 2021
Orbit: 789 x 807 km, 98.3° (Epoch: 15 April)

Event Time Altitude Azimuth Distance (km) Brightness Sun altitude
Rises 19:47:25 0° 12° (NNE) 3,311 7.3 -20.4°
Reaches altitude 10° 19:49:46 10° 11° (NNE) 2,374 6.5 -20.8°
Maximum altitude 19:55:01 80° 286° (WNW) 811 4.1 -21.7°
Drops below altitude 10° 20:00:12 10° 200° (SSW) 2,349 6.6 -22.5°
Sets 20:02:30 0° 199° (SSW) 3,272 7.3 -22.9°
